Regional Weather Roundup
Issued by NWS

Home | Current Version | Previous Version | Text Only | Print | Product List | Glossary On
Versions: 1 2 3 4 5 6 7 8 9 10 11 12 13 14 15 16 17 18 19 20 21 22 23 24 25 26 27
000
ASUS46 KSEW 271410
RWRWA

WASHINGTON REGIONAL WEATHER ROUNDUP
NATIONAL WEATHER SERVICE SEATTLE WA
700 AM PDT TUE JUN 27 2017

NOTE:"FAIR" INDICATES FEW OR NO CLOUDS BELOW 12,000 FEET WITH NO
SIGNIFICANT WEATHER AND/OR OBSTRUCTIONS TO VISIBILITY.

WAZ507-509-555>559-271500-
SEATTLE, TACOMA, EVERETT, AND VICINITY

CITY           SKY/WX    TMP DP  RH WIND       PRES   REMARKS
EVERETT        CLOUDY    54  49  83 S12       30.05S
BOEING FIELD   CLOUDY    56  51  84 S6        30.06R
RENTON         CLOUDY    58  50  75 VRB6      30.06R
SEATAC AIRPORT CLOUDY    56  49  77 S9        30.06S
JBLM-MCCHORD   CLOUDY    55  50  83 S7        30.06S
PUYALLUP       CLOUDY    55  50  82 CALM      30.07S
BREMERTON      CLOUDY    53  49  86 SW5       30.06R
JBLM-FT LEWIS  CLOUDY    55  51  86 S7        30.06R
TACOMA NARROWS CLOUDY    54  49  83 S3        30.07S
$$

WAZ001-503-506-510-514-515-271500-
NORTH INTERIOR

CITY           SKY/WX    TMP DP  RH WIND       PRES   REMARKS
BELLINGHAM     MOSUNNY   57  52  83 S10       30.03R
FRIDAY HARBOR  MOSUNNY   51  51 100 SE3       30.05R
EASTSOUND      MOSUNNY   57  50  77 S14       30.03R
PORT ANGELES   MOSUNNY   53  50  89 CALM      30.04R
EDIZ HOOK      FAIR      53  48  83 CALM      30.04R
PORT TOWNSEND  CLOUDY    54  54 100 E5        30.04S FOG
NAS WHIDBEY    CLOUDY    57  50  77 S7        30.08R
ARLINGTON      CLOUDY    55  52  88 SW5       30.05S
BURLINGTON     PTSUNNY   54  52  94 CALM      30.05R
$$

WAZ020-022-039-040-504-511-512-271500-
SOUTHWEST INTERIOR

CITY           SKY/WX    TMP DP  RH WIND       PRES   REMARKS
SHELTON        NOT AVBL
OLYMPIA        CLOUDY    55  49  80 SW8       30.06S
CHEHALIS       CLOUDY    54  50  87 CALM      30.07S
KELSO          CLOUDY    57  48  72 NE3       30.08R
VANCOUVER      CLOUDY    58  50  75 VRB3      30.07R
SCAPPOOSE, OR  CLOUDY    57  49  74 N5        30.06S
PORTLAND, OR   CLOUDY    58  48  69 N3        30.07R
$$

WAZ021-516-517-271500-
WASHINGTON COAST

CITY           SKY/WX    TMP DP  RH WIND       PRES   REMARKS
FORKS          CLOUDY    54  50  86 CALM      30.03R
HOQUIAM        CLOUDY    57  51  80 SW8       30.06R HAZE
ASTORIA, OR    CLOUDY    57  49  74 S3        30.06S
$$

WAZ019-023-024-040-567>569-271500-
CASCADE MOUNTAINS AND COLUMBIA GORGE

CITY           SKY/WX    TMP DP  RH WIND       PRES   REMARKS
STAMPEDE PASS  FOG       45  45 100 VRB5      30.03S VSB 1/4
TROUTDALE, OR  CLOUDY    59  49  69 CALM      30.06S
HOOD RIVER, OR MOSUNNY   61  50  67 NW10G25   29.98S
THE DALLES, OR MOSUNNY   64  51  62 NW15G26   29.94S
$$

WAZ026-027-041>044-520-521-271500-
EAST SLOPES

CITY           SKY/WX    TMP DP  RH WIND       PRES   REMARKS
OMAK           PTSUNNY   68  35  29 N12       29.87R
WENATCHEE      SUNNY     64  41  42 NW10      29.89R
ELLENSBURG     SUNNY     61  45  55 NW18G29   29.90R
YAKIMA         MOSUNNY   69  43  38 VRB5      29.88S
SUNNYSIDE ARPT MOSUNNY   62  54  74 SW3       29.87R
YAKIMA TC      NOT AVBL
$$

WAZ028-034-035-271500-
COLUMBIA BASIN

CITY           SKY/WX    TMP DP  RH WIND       PRES   REMARKS
EPHRATA        SUNNY     68  31  25 NW6       29.84R
MOSES LAKE     MOSUNNY   67  38  34 W9        29.85R
PASCO          MOSUNNY   67  53  61 SW7       29.87R
RICHLAND ARPT  MOSUNNY   69  53  55 CALM      29.86R
HERMISTON, OR  MOSUNNY   66  51  58 SW20G26   29.89R
$$

WAZ036>038-271500-
NORTHEAST WASHINGTON

CITY           SKY/WX    TMP DP  RH WIND       PRES   REMARKS
SPOKANE GEIGER PTSUNNY   59  55  87 S10       29.87R
SPOKANE FELTS  PTSUNNY   63  55  75 S10       29.87R
FAIRCHILD AFB  PTSUNNY   57  57 100 S7        29.86R
COEURDALENE,ID PTSUNNY   62  55  77 NW5       29.88R
DEER PARK      PTSUNNY   60  55  83 MISG      29.86R
$$

WAZ029>033-271500-
SOUTHEAST WASHINGTON

CITY           SKY/WX    TMP DP  RH WIND       PRES   REMARKS
PULLMAN        PTSUNNY   63  49  60 W13       29.91S
LEWISTON, ID   PTSUNNY   66  57  72 SE7       29.86R
WALLA WALLA    PTSUNNY   66  52  60 S14       29.91R
PENDLETON, OR  MOSUNNY   63  49  60 W6        29.93R
$$




USA.gov is the U.S. government's official web portal to all federal, state and local government web resources and services.